Regional Weather Roundup
Issued by NWS

Home | Current Version | Previous Version | Text Only | Print | Product List | Glossary On
Versions: 1 2 3 4 5 6 7 8 9 10 11 12 13 14 15 16 17 18 19 20 21 22 23 24 25 26 27 28 29 30 31 32 33 34 35 36 37 38 39 40 41 42 43 44 45 46 47 48 49 50
000
ASUS43 KDTX 181101
RWRMI
MICHIGAN HOURLY REGIONAL WEATHER ROUNDUP
NATIONAL WEATHER SERVICE DETROIT/PONTIAC MI
600 AM EST SAT NOV 18 2017

NOTE: "FAIR" INDICATES FEW OR NO CLOUDS BELOW 12,000 FEET WITH NO
SIGNIFICANT WEATHER AND/OR OBSTRUCTION TO VISIBILITY.

MIZ047>049-052>055-059>063-066>070-074>076-081>083-181200-
SOUTHEAST LOWER MICHIGAN

CITY           SKY/WX    TMP DP  RH WIND       PRES   REMARKS
ADRIAN         CLOUDY    42  41  96 S5        29.56S FOG
ALMA           CLOUDY    42  42 100 CALM      29.51S FOG
ANN ARBOR      CLOUDY    42  42 100 S7        29.52F FOG
BAD AXE        CLOUDY    40  40  99 S3        29.53F
CARO           CLOUDY    41  41  98 S3        29.52S
DETROIT CITY   CLOUDY    57  42  57 S8        29.55F
DETROIT        DRIZZLE   43  42  97 S9        29.55F FOG
FLINT          CLOUDY    43  41  93 S3        29.54R
GROSSE ILE     CLOUDY    43  42  97 S8        29.55F FOG
HILLSDALE      DRIZZLE   43  41  93 S3        29.53S
HOWELL         CLOUDY    42  42  99 CALM      29.52S

CITY           SKY/WX    TMP DP  RH WIND       PRES   REMARKS
JACKSON        CLOUDY    44  42  93 S6        29.51F FOG
LAMBERTVILLE   CLOUDY    46  44  91 S3        29.56F FOG
LANSING        CLOUDY    43  43 100 SW6       29.53R
LAPEER         CLOUDY    42  41  95 CALM      29.54S
MASON          CLOUDY    45  42  91 CALM      29.52R
MONROE         DRIZZLE   44  42  93 CALM      29.56S
MT. CLEMENS    CLOUDY    43  43 100 S7        29.53F
PONTIAC        CLOUDY    41  41 100 S5        29.52F
PORT HOPE        N/A     41  39  93 VRB5      29.50F
PORT HURON     CLOUDY    43  41  93 S6        29.56S
TRI CITIES     CLOUDY    42  42 100 S3        29.53S FOG
MIDLAND        CLOUDY    42  42  99 CALM      29.51F FOG
TROY           CLOUDY    44  42  93 S7        29.55F
SAGINAW HB     CLOUDY    41  39  93 S5        29.52F
$$
MIZ043>046-050>051-056>058-064>065-071>073-077>080-181200-
SOUTHWEST LOWER MICHIGAN

CITY           SKY/WX    TMP DP  RH WIND       PRES   REMARKS
BATTLE CREEK   CLOUDY    43  42  97 S5        29.51F FOG
BENTON HARBOR  CLOUDY    45  43  93 S3        29.50S FOG
BIG RAPIDS     CLOUDY    40  38  92 NW5       29.51S
COLDWATER      CLOUDY    43  43 100 SE6       29.52F FOG
FREMONT        CLOUDY    41  41 100 NW7       29.52S
HOLLAND        CLOUDY    46  43  89 N5        29.51S
GRAND RAPIDS   DRIZZLE   44  44 100 W6        29.51S FOG
KALAMAZOO      CLOUDY    44  41  89 S5        29.52S FOG
LUDINGTON      CLOUDY    40  38  91 NW3       29.53S
MARSHALL       CLOUDY    43  42  97 S6        29.51F FOG
MOUNT PLEASANT CLOUDY    42  41  95 CALM      29.51S FOG
MUSKEGON       CLOUDY    43  39  86 N9        29.53S
SOUTH HAVEN    CLOUDY    45  43  95 CALM      29.51R FOG
$$
MIZ016>042-181200-
NORTHERN LOWER MICHIGAN

CITY           SKY/WX    TMP DP  RH WIND       PRES   REMARKS
ALPENA         CLOUDY    36  36 100 CALM      29.51F FOG
BEAVER ISLAND  CLOUDY    40  39  99 CALM      29.52F
BELLAIRE       CLOUDY    37  37 100 CALM      29.51F FOG
CADILLAC       CLOUDY    38  38  98 NW6       29.49F FOG     WCI  34
CHARLEVOIX     CLOUDY    37  37 100 SE3       29.54S FOG
FRANKFORT      CLOUDY    42  40  91 N3        29.53R
GAYLORD        FOG       33  32  96 SW3       29.51R VSB 3/4
GRAYLING       CLOUDY    37  35  90 CALM      29.52R FOG
HARBOR SPRINGS CLOUDY    34  34  99 CALM      29.52S FOG
HOUGHTON LAKE  CLOUDY    37  36  96 CALM      29.53R FOG
MANISTEE       CLOUDY    41  38  89 CALM      29.53S
OSCODA         CLOUDY    39  39  97 SW6       29.50F FOG
PELLSTON       CLOUDY    34  33  96 CALM      29.53S FOG
ROGERS CITY    CLOUDY    34  33  97 CALM      29.53S FOG
TRAVERSE CITY  CLOUDY    40  38  93 W3        29.52S FOG
$$
MIZ007>008-015-181200-
EASTERN UPPER MICHIGAN

CITY           SKY/WX    TMP DP  RH WIND       PRES   REMARKS
KINROSS        FOG       32  32 100 N5        29.55R VSB 1/2 WCI  27
MACKINAC ISLAN CLOUDY    35  35 100 CALM      29.52F FOG
NEWBERRY       FOG       32  31  96 NW3       29.55F VSB 3/4
S. S. MARIE    CLOUDY    34  33  96 N3        29.55R
MUNISING         N/A     40  37  89 N12       29.57S WCI  33
$$
MIZ004>006-011>014-085-181200-
CENTRAL UPPER MICHIGAN

CITY           SKY/WX    TMP DP  RH WIND       PRES   REMARKS
MANISTIQUE     CLOUDY    35  30  83 N6        29.56R WCI  30
ESCANABA       CLOUDY    36  35  96 NW3       29.58F
MENOMINEE      CLOUDY   N/A N/A N/A N5        29.59S
$$
MIZ001>003-009>011-084-181200-
WESTERN UPPER MICHIGAN

CITY           SKY/WX    TMP DP  RH WIND       PRES   REMARKS
IRON MOUNTAIN  CLOUDY    35  32  88 N9        29.56S FOG     WCI  28
HOUGHTON       CLOUDY    35  30  82 N6        29.61S WCI  30
COPPER HARBOR    N/A     39  32  76 NE13G22   29.63R WCI  31
IRONWOOD       CLOUDY   N/A N/A N/A N5        29.67R
$$

ABBREVIATIONS USED IN REMARKS
   TC - TEMPERATURE IN CELSIUS
  WCI - WIND CHILL INDEX
   HX - HEAT INDEX
  VSB - VISIBILITY





USA.gov is the U.S. government's official web portal to all federal, state and local government web resources and services.